Location: Lake Arresoe
(56.0000°N, 12.5000°E)
Time: 11:34:03
(UTC+02:00)

Resurs 1-4 Rocket - Pass Details

Date: 23 August 2020
Orbit: 799 x 815 km, 98.6° (Epoch: 23 September)

Event Time Altitude Azimuth Distance (km) Brightness Sun altitude
Rises 03:33:08 0° 15° (NNE) 3,328 6.6 -16.6°
Reaches altitude 10° 03:35:30 10° 12° (NNE) 2,392 5.6 -16.4°
Maximum altitude 03:40:43 64° 292° (WNW) 888 2.2 -16.0°
Enters shadow 03:43:45 25° 219° (SW) 1,567 3.0 -15.7°
